Location: Unspecified
(0.0000°N, 0.0000°E)
Time: 14:47:43
(UTC+00:00)

Vanguard 2 - Visible Passes

Search period start: 20 July 2017 00:00
Search period end: 30 July 2017 00:00
Orbit: 554 x 2939 km, 32.9° (Epoch: 19 July)

Date Brightness Start Highest point End Pass type
(mag) Time Alt. Az. Time Alt. Az. Time Alt. Az.
20 Jul 10.6 19:27:35 10° NNW 19:39:53 42° NE 19:49:09 26° E visible
20 Jul 10.2 21:36:44 10° WNW 21:50:33 75° WNW 21:50:33 75° WNW visible
20 Jul 11.8 23:50:48 10° W 23:51:58 13° W 23:51:58 13° W visible
21 Jul 10.3 19:45:23 10° NW 19:58:22 54° NE 20:06:05 36° E visible
21 Jul 10.4 21:55:20 10° WNW 22:07:30 59° W 22:07:30 59° W visible
22 Jul 10.1 20:03:21 10° NW 20:16:47 69° NE 20:23:05 47° ESE visible
22 Jul 10.7 22:14:15 10° WNW 22:24:31 44° W 22:24:31 44° W visible
23 Jul 10.6 18:13:47 10° NNW 18:23:26 33° NE 18:37:01 10° E visible
23 Jul 10.0 20:21:30 10° NW 20:35:14 86° NE 20:40:10 58° ESE visible
23 Jul 11.1 22:33:34 10° W 22:41:35 32° WSW 22:41:35 32° WSW visible
24 Jul 10.6 05:31:29 10° SSW 05:35:32 13° SSE 05:38:54 10° SE visible
24 Jul 10.3 18:31:22 10° NNW 18:41:47 44° NE 18:55:51 13° ESE visible
24 Jul 10.0 20:39:53 10° WNW 20:53:47 77° SW 20:57:17 64° SSE visible
24 Jul 11.4 22:53:21 10° W 22:58:43 22° WSW 22:58:43 22° WSW visible
25 Jul 11.2 03:40:42 10° S 03:40:58 10° S 03:42:49 10° S visible
25 Jul 10.0 18:49:08 10° NW 19:00:05 58° NE 19:13:01 18° ESE visible
25 Jul 10.2 20:58:31 10° WNW 21:12:27 62° SSW 21:14:27 59° S visible
25 Jul 11.7 23:13:39 10° WSW 23:15:53 14° WSW 23:15:53 14° WSW visible
26 Jul 11.0 03:57:42 11° S 04:00:43 13° S 04:04:45 10° SSE visible
26 Jul 9.9 19:07:06 10° NW 19:18:24 75° NE 19:30:14 24° ESE visible
26 Jul 10.5 21:17:30 10° WNW 21:31:18 49° SSW 21:31:40 49° SSW visible
27 Jul 10.8 04:14:45 12° SSW 04:20:16 16° SSE 04:25:38 10° SE visible
27 Jul 9.9 19:25:17 10° NW 19:36:48 86° SW 19:47:28 29° SE visible
27 Jul 10.8 21:36:53 10° W 21:48:55 38° SW 21:48:55 38° SW visible
28 Jul 10.5 04:31:49 11° SSW 04:39:37 21° SSE 04:45:48 10° ESE visible
28 Jul 10.0 19:43:43 10° WNW 19:55:22 68° SSW 20:04:45 32° SE visible
28 Jul 11.1 21:56:44 10° W 22:06:11 29° SW 22:06:11 29° SW visible
29 Jul 11.2 02:47:29 14° SSE 02:47:29 14° SSE 02:50:59 10° SE visible
29 Jul 10.2 04:48:55 10° SSW 04:58:45 29° SSE 05:05:24 10° E visible
29 Jul 10.3 20:02:27 10° WNW 20:14:08 53° SSW 20:22:02 33° SSE visible
29 Jul 11.4 22:17:04 10° WSW 22:23:28 21° SW 22:23:28 21° SW visible
